This is the latest recevied weather packets stored in our database for station/object KJ5BMY-13. If no packets are shown the sender has not sent any weather packets the latest 10 day(s).
| Time | Temp. | Humidity | Pressure | Rain* | Wind** | Luminosity | Snow |
|---|---|---|---|---|---|---|---|
| 1777661263 | 18.33° C | 54% | 1017.5 hPa | 0 mm | - | - | - |
| 1777660958 | 18.33° C | 56% | 1017.6 hPa | 0 mm | - | - | - |
| 1777660654 | 18.33° C | 57% | 1017.8 hPa | 0 mm | - | - | - |
| 1777660352 | 18.33° C | 57% | 1018 hPa | 0 mm | - | - | - |
| 1777660048 | 18.33° C | 56% | 1018.1 hPa | 0 mm | - | - | - |
| 1777659745 | 18.33° C | 56% | 1018.4 hPa | 0 mm | - | - | - |
| 1777659442 | 18.33° C | 55% | 1018.2 hPa | 0 mm | - | - | - |
| 1777659139 | 18.89° C | 55% | 1018.4 hPa | 0 mm | - | - | - |
| 1777658837 | 19.44° C | 56% | 1018.5 hPa | 0 mm | - | - | - |
| 1777658532 | 19.44° C | 55% | 1018.7 hPa | 0 mm | - | - | - |
| 1777658229 | 20° C | 55% | 1018.7 hPa | 0 mm | - | - | - |
| 1777657927 | 21.11° C | 55% | 1018.7 hPa | 0 mm | - | - | - |
| 1777657623 | 20° C | 55% | 1018.6 hPa | 0 mm | - | - | - |
| 1777657321 | 19.44° C | 55% | 1018.8 hPa | 0 mm | - | - | - |
| 1777657018 | 18.89° C | 56% | 1018.7 hPa | 0 mm | - | - | - |
| 1777656715 | 19.44° C | 56% | 1019.1 hPa | 0 mm | - | - | - |
| 1777656411 | 20° C | 54% | 1019.1 hPa | 0 mm | - | - | - |
| 1777656106 | 18.89° C | 57% | 1019.2 hPa | 0 mm | - | - | - |
| 1777655802 | 19.44° C | 56% | 1019.2 hPa | 0 mm | - | - | - |
| 1777655499 | 19.44° C | 58% | 1019.2 hPa | 0 mm | - | - | - |
| 1777655196 | 19.44° C | 60% | 1019.2 hPa | 0 mm | - | - | - |
| 1777654893 | 18.89° C | 63% | 1019.2 hPa | 0 mm | - | - | - |
| 1777654591 | 18.89° C | 62% | 1019.4 hPa | 0 mm | - | - | - |
| 1777654287 | 18.89° C | 64% | 1019.3 hPa | 0 mm | - | - | - |
| 1777653986 | 18.89° C | 64% | 1019.6 hPa | 0 mm | - | - | - |
* Rain latest hour (hover to see other rain measurements)
** Current wind speed in m/s (hover to see current wind gust speed)